Current Version              Previous Version:    01  02  03  04  05  06  07  08  09  10  11  12  13  14  15  16  17  18  19  20  21  22  23  24  25  26  27  28  29  30  
   31  32  33  34  35  36  37  38  39  40  41  42  43  44  45  46  47  48  49  50  51  52  53  54  55  56  57  58  59  60  

[Printable]
024
ASUS44 KEWX 020402
RWRTX
SOUTH TEXAS REGIONAL WEATHER ROUNDUP
NATIONAL WEATHER SERVICE AUSTIN/SAN ANTONIO TX
1100 PM CDT WED OCT 01 2014

NOTE: "FAIR" INDICATED FEW OR NO CLOUDS BELOW 12,000 FEET WITH NO
SIGNIFICANT WEATHER AND/OR OBSTRUCTIONS TO VISIBILITY.

* - THESE STATIONS ARE NOT NWS OR FAA STATIONS...AND ARE NOT SUBJECT
    TO NWS AND FAA QUALITY CONTROL.

TXZ171-172-183>190-020500-
TEXAS HILL COUNTRY AND EDWARDS PLATEAU

CITY           SKY/WX    TMP DP  RH WIND       PRES   REMARKS
JUNCTION       CLEAR     80  65  59 S3        29.84R
*LLANO         CLEAR     81  66  61 S7        29.84S
BURNET         CLEAR     80  65  59 S5        29.85R
*HORSESHOE BAY CLEAR     80  64  59 S5        29.83R
*KERRVILLE     CLEAR     76  68  76 SE5       29.86S
*FREDERICKSBRG CLEAR     76  65  68 S8        29.86S
*ROCKSPRINGS   CLEAR     75  64  69 CALM      29.90R
*BOERNE STAGE  CLEAR     77  64  65 S6        29.87R
*CASTROVILLE   CLEAR     81  70  68 S9        29.85R
HONDO          CLEAR     82  69  64 S10       29.84R
*UVALDE        CLEAR     81  70  70 SE8       29.83R
DEL RIO        CLEAR     81  69  67 SE8       29.78R
LAUGHLIN AFB   CLEAR     78  70  76 SE7       29.80R
CARRIZO SPRGS  CLEAR     81  72  74 SE7       29.79R
$$

TXZ173-191>194-202-209-217>225-228-020500-
CENTRAL AND SOUTH CENTRAL TEXAS

CITY           SKY/WX    TMP DP  RH WIND       PRES   REMARKS
GEORGETOWN     CLEAR     81  70  69 S9        29.83R
AUSTIN/BERGSTM PTCLDY    80  70  71 S12       29.82R
AUSTIN/MABRY   CLEAR     81  70  69 S8        29.84R
*AUSTIN/EXEC   CLEAR     81  72  74 S9        29.84R
*LAGO VISTA    CLEAR     79  68  68 S7        29.85S
SAN MARCOS     CLEAR     81  68  65 S13       29.84R
NEW BRAUNFELS  CLEAR     79  72  79 S10       29.82R
RANDOLPH AFB   CLEAR     79  71  76 S10       29.84R
PT SAN ANTONIO CLEAR     80  74  82 SE14      29.82R
SAN ANTONIO    PTCLDY    81  74  79 S16       29.84R
STINSON FIELD  CLEAR     80  75  84 SE9       29.81R
*PLEASANTON    CLEAR     80  74  80 SE9       29.82S
*LA GRANGE     CLEAR     80  77  91 S7        29.82S
*GIDDINGS      CLEAR     79  72  79 S5        29.87R
*GONZALES      CLEAR     80  76  89 S9        29.82S
$$

TXZ163>164-176>182-195>201-210>213-226-227-235-020500-
SOUTHEAST TEXAS

CITY           SKY/WX    TMP DP  RH WIND       PRES   REMARKS
COLLEGE STN    CLEAR     80  71  74 S13       29.83R
*BRYAN         CLEAR     80  71  75 S12       29.84S
*CALDWELL      CLEAR     79  73  83 S9        29.86R
*CROCKETT      CLEAR     81  75  83 SE6       29.87R
*BRENHAM       CLEAR     80  74  81 S7        29.85R
HUNTSVILLE     CLEAR     80  73  79 S8        29.85R
CONROE         CLEAR     77  73  87 SE8       29.86R
HOUSTON BUSH   PTCLDY    79  75  87 S5        29.85S
HOUSTON HOBBY  PTCLDY    79  77  94 S5        29.85R
*HOUSTON SW AP CLEAR     67  66  97 CALM      29.86S
PEARLAND       CLEAR     80  77  90 S6        29.87R
HOUSTON HOOKS  CLEAR     80  74  81 VRB3      29.85S
ELLINGTON FLD  NOT AVBL
SUGAR LAND     CLEAR     79  75  87 S9        29.85R
*HOUSTON EXEC  CLEAR     75  75 100 S6        29.86S
*CLEVELAND MUN CLEAR     76  75  96 S3        29.87S
*WHARTON       CLEAR     75  74  96 SE5       29.85S
*COLUMBUS      FAIR      77  75  93 S6        29.84S
$$

TXZ214>216-236>238-020500-
THE UPPER TEXAS COAST

CITY           SKY/WX    TMP DP  RH WIND       PRES   REMARKS
*ORANGE        PTCLDY   N/A N/A N/A SE6       29.89S
PORT ARTHUR    PTCLDY    79  76  90 SE6       29.87S
GALVESTON      CLEAR     82  79  90 S12       29.88R HX  92
ANGLETON       CLEAR     79  77  94 S8        29.86R
*BAY CITY      PTCLDY    80  78  95 SE6       29.85S
PALACIOS       PTCLDY    82  79  90 S10       29.85R HX  92
$$

TXZ229>234-239>247-020500-
TEXAS COASTAL BEND AND RIO GRANDE PLAINS

CITY           SKY/WX    TMP DP  RH WIND       PRES   REMARKS
VICTORIA       PTCLDY    80  78  94 SE9       29.84R
*BEEVILLE      CLEAR     80  79  98 SE7       29.83S
ROCKPORT       PTCLDY    83  79  88 S9        29.83R FOG     HX  94
*PORT ARANSAS  PTCLDY    82  79  90 S15       29.83S HX  92
*PORT LAVACA   CLEAR     79  78  95 S7        29.84R
*INGLESIDE     PTCLDY    83  79  88 S12       29.83R HX  94
CORPUS CHRISTI PTCLDY    81  78  91 SE10      29.83R
CORPUS NAS     PTCLDY    83  80  91 S17       29.83R HX  95
*ROBSTOWN      NOT AVBL
ALICE          PTCLDY    80  78  94 SE9       29.82R FOG
KINGSVILLE NAS PTCLDY    82  80  94 SE13      29.83R HX  94
COTULLA        CLEAR     83  75  77 SE12      29.81R HX  90
*FAITH RANCH   CLEAR     82  72  69 SE9       29.80R
LAREDO         CLEAR     84  75  74 SE14      29.82R HX  91
$$

TXZ248>255-020500-
DEEP SOUTH TEXAS

CITY           SKY/WX    TMP DP  RH WIND       PRES   REMARKS
BROWNSVILLE    PTCLDY    82  82 100 SE8       29.83R HX  96
PORT ISABEL    NOT AVBL
*SOUTH PADRE   MOCLDY    84  81  89 SE15      29.83S HX  98
HARLINGEN      CLEAR     80  78  94 SE6       29.83R
*HEBBRONVILLE  CLEAR     80  73  81 SE8       29.84R
MCALLEN        CLEAR     80  78  94 SE8       29.83R
*WESLACO       CLEAR     80  76  86 SE7       29.83R
FALFURRIAS     CLEAR     80  76  90 SE9       29.82R
EDINBURG       CLEAR     82  76  83 SE5       29.83R
*ZAPATA        CLEAR     83  74  76 SE10      29.80R
$$

TXZ213>215-236>238-242>244-246-247-251-254-255-020500-
CMAN STATIONS

STATION/POSITION TIME  TEMP    WIND        PRES    WAVE
                       AIR SEA DIR/SP/G            HT/PER
                 (UTC) (F)     (DEG/KT/KT) (MB)    (FT/S)
SABINE PASS      0300                      1011.7
SEA RIM ST PARK  0300   81     170/  9/ 11 1012.0
NORTH JETTY/GLS  0300   82 82  200/ 12/ 14   N/A
EAGLE POINT      0300                      1011.1
MORGANS POINT    0300                      1010.9
MISSION/ARANSAS  0300          150/ 14     1011.0
PORT O`CONNOR    0300          160/ 14/ 15   N/A
PORT ARANSAS     0300   83 84  140/ 16/ 18 1010.5
MALAQUITE BEACH  0300   83                   N/A
BAFFIN BAY       0300   83                   N/A
PORT ISABEL      0300   84 84  140/ 16/ 21 1010.5
$$

GMZ080-GMZ150>470-020500-
OFFSHORE BUOY REPORTS

STATION/POSITION TIME  TEMP    WIND        PRES    WAVE
                       AIR SEA DIR/SP/G            HT/PER
                 (UTC) (F)     (DEG/KT/KT) (MB)    (FT/S)
20 E GALVESTON   0400   83 82  170/ 12/ 16 1010.9    2/ 5
90 E PT ARANSAS  0400   84 84  170/ 16/ 19 1011.4    3/ 5
35 NE PT MANSFLD 0300   84 83  160/ 16/ 19 1009.5    3/ 5
200 E PT ISABEL  0300   84 84  160/ 10/ 14 1012.6    2/ 4
$$